This is the latest recevied weather packets stored in our database for station/object WA4TPR. If no packets are shown the sender has not sent any weather packets the latest 10 day(s).
| Time | Temp. | Humidity | Pressure | Rain* | Wind** | Luminosity | Snow |
|---|---|---|---|---|---|---|---|
| 1777929466 | 26.67° C | 69% | 1017.7 hPa | 0 mm | - | 219 W/m² | - |
| 1777929162 | 26.67° C | 70% | 1017.6 hPa | 0 mm | - | 253 W/m² | - |
| 1777928860 | 26.67° C | 71% | 1017.8 hPa | 0 mm | - | 475 W/m² | - |
| 1777928557 | 26.67° C | 71% | 1017.8 hPa | 0 mm | - | 540 W/m² | - |
| 1777928254 | 26.67° C | 70% | 1017.9 hPa | 0 mm | - | 303 W/m² | - |
| 1777927952 | 26.67° C | 71% | 1017.8 hPa | 0 mm | - | 252 W/m² | - |
| 1777927650 | 26.67° C | 71% | 1017.8 hPa | 0 mm | - | 637 W/m² | - |
| 1777927348 | 26.67° C | 70% | 1017.6 hPa | 0 mm | - | 351 W/m² | - |
| 1777927047 | 26.11° C | 71% | 1017.9 hPa | 0 mm | - | 302 W/m² | - |
| 1777926743 | 26.11° C | 72% | 1017.7 hPa | 0 mm | - | 334 W/m² | - |
| 1777926438 | 26.67° C | 70% | 1017.8 hPa | 0 mm | - | 177 W/m² | - |
| 1777926135 | 26.11° C | 70% | 1018.1 hPa | 0 mm | - | 122 W/m² | - |
| 1777925832 | 26.67° C | 71% | 1018.1 hPa | 0 mm | - | 124 W/m² | - |
| 1777925530 | 27.22° C | 67% | 1018 hPa | 0 mm | - | 235 W/m² | - |
| 1777925227 | 27.22° C | 69% | 1018 hPa | 0 mm | - | 498 W/m² | - |
| 1777924923 | 27.78° C | 68% | 1017.9 hPa | 0 mm | - | 656 W/m² | - |
| 1777924619 | 27.22° C | 67% | 1018.1 hPa | 0 mm | - | 828 W/m² | - |
| 1777924315 | 26.67° C | 69% | 1018.2 hPa | 0 mm | - | 316 W/m² | - |
| 1777924013 | 27.22° C | 69% | 1018.1 hPa | 0 mm | - | 291 W/m² | - |
| 1777923708 | 27.78° C | 66% | 1018.4 hPa | 0 mm | - | 240 W/m² | - |
| 1777923405 | 27.78° C | 67% | 1018.3 hPa | 0 mm | - | 805 W/m² | - |
| 1777923103 | 27.78° C | 68% | 1018.5 hPa | 0 mm | - | 855 W/m² | - |
| 1777922801 | 27.78° C | 66% | 1018.5 hPa | 0 mm | - | 810 W/m² | - |
| 1777922499 | 27.22° C | 68% | 1018.7 hPa | 0 mm | - | 805 W/m² | - |
| 1777922197 | 27.22° C | 68% | 1018.8 hPa | 0 mm | - | 849 W/m² | - |
* Rain latest hour (hover to see other rain measurements)
** Current wind speed in m/s (hover to see current wind gust speed)